Kezdőlap
METAR-TAF:

METAR-TAF

Repülőterek :

Perry Lefors Field

Pampa, Texas, Amerikai Egyesült Államok

földrajzi szélesség: 35-36-46N, földrajzi hosszúság: 100-59-46W, magasság: 989 m

Jelenlegi meteorológiai megfigyelések

A jelentés 26 perccel ezelõtt készült, 02:15 UTC
Déli szél 11 kt
Hőmérséklet 25°C
Páratartalom 74%
Légköri nyomás 1019 hPa
Látótávolság: 16.1 km
Derült ég

METAR: KPPA 220215Z AUTO 17011KT 10SM CLR 25/20 A3010 RMK AO2 T02530199

Idő: 21:41 (02:41 UTC)


TAF: hiányzik

Meteorológiai megfigyelések és előrejelzések több, mint 4000 repülőtéren (METAR és TAF jelentéseket).

A térképen piros és sárga pontok jelzik az elérhető meteorológiai állomásokat.

Mozgassa az egeret a pont fölött, hogy megjelenjen az állomás neve.

Azután kattintson az időjárási megfigyelések és előrejelzések megtekintéséhez.

A térkép megváltoztatása: kattintson a fekete keresztel jelölt zöld gombra ráközelítéshez, a vonallal jelölt zöld gombra távolításhoz, vagy a zöld nyilakra a szomszédos térképek eléréséhez.


METAR-TAF: